Orbital Elements
The following orbital elements are taken from MPC 60282:
Epoch 2007 Oct. 27.0 TT = JDT 2454400.5
T 2007 Oct. 22.1963 TT MPC
q 2.960636 (2000.0) P Q
n 0.1150244 Peri. 224.8589 +0.9926796 -0.0486817
a 4.187384 Node 137.5609 +0.0782447 +0.9563664
e 0.292963 Incl. 9.4274 -0.0920049 +0.2880858
P 8.57
From 109 observations 1990-2007, mean residual 0".9.
|